GW3906 Weather Reports


time (UTC)temp
C
wind
direction
speed
KPH
gust
KPH
rain 1hr
cm
rain 24hr
cm
rain mn
cm
humidity
%
barometer
mb
20260504100605 13 360 8.0 16.1 0.00 0.00 0.00 46 995.7
20260504100505 13 360 8.0 16.1 0.00 0.00 0.00 46 995.8
20260504100404 13 360 8.0 16.1 0.00 0.00 0.00 45 995.9
20260504100305 13 360 8.0 16.1 0.00 0.00 0.00 45 995.9
20260504100205 13 360 8.0 16.1 0.00 0.00 0.00 46 996.0
20260504100104 13 360 6.4 16.1 0.00 0.00 0.00 46 996.0
20260504090105 13 360 8.0 17.7 0.00 0.00 0.00 45 996.7
20260504081905 13 360 6.4 9.7 0.00 0.00 0.00 44 997.7
20260504081819 13 360 6.4 9.7 0.00 0.00 0.00 44 997.7
20260504081705 13 360 4.8 9.7 0.00 0.00 0.00 44 997.8
20260504081604 13 360 4.8 9.7 0.00 0.00 0.00 44 997.8
20260504081505 13 360 4.8 8.0 0.00 0.00 0.00 44 997.8
20260504081419 13 360 4.8 8.0 0.00 0.00 0.00 44 997.8
20260504081318 13 360 4.8 8.0 0.00 0.00 0.00 44 997.8
20260504081205 13 360 6.4 14.5 0.00 0.00 0.00 44 997.8
20260504081106 13 360 6.4 14.5 0.00 0.00 0.00 44 997.9
20260504081019 13 360 6.4 14.5 0.00 0.00 0.00 44 997.9
20260504080905 13 360 6.4 14.5 0.00 0.00 0.00 44 998.0
20260504080804 13 360 6.4 14.5 0.00 0.00 0.00 44 998.0
20260504080705 13 360 8.0 14.5 0.00 0.00 0.00 44 998.0
20260504080619 13 360 8.0 14.5 0.00 0.00 0.00 44 998.0
20260504080505 13 360 8.0 14.5 0.00 0.00 0.00 44 998.0
20260504080405 13 360 8.0 14.5 0.00 0.00 0.00 44 998.1
20260504080304 13 360 8.0 14.5 0.00 0.00 0.00 44 998.1
20260504080204 13 360 8.0 14.5 0.00 0.00 0.00 44 998.1
20260504080105 13 360 6.4 9.7 0.00 0.00 0.00 44 998.1
20260504070405 13 360 4.8 8.0 0.00 0.00 0.00 41 998.9
20260504070304 13 360 4.8 8.0 0.00 0.00 0.00 41 999.0
20260504070220 13 360 4.8 8.0 0.00 0.00 0.00 41 999.0
20260504070104 13 360 4.8 8.0 0.00 0.00 0.00 41 999.1
20260504060205 13 360 4.8 9.7 0.00 0.00 0.00 43 1000.4
20260504060104 13 360 4.8 9.7 0.00 0.00 0.00 43 1000.4
20260504050704 13 360 4.8 8.0 0.00 0.00 0.00 41 1001.3
20260504050604 13 360 4.8 8.0 0.00 0.00 0.00 42 1001.4
20260504050504 13 360 4.8 8.0 0.00 0.00 0.00 42 1001.4
20260504050405 13 360 4.8 8.0 0.00 0.00 0.00 42 1001.4
20260504050305 13 360 4.8 8.0 0.00 0.00 0.00 42 1001.4
20260504050204 13 360 4.8 8.0 0.00 0.00 0.00 42 1001.4
20260504050105 13 360 4.8 8.0 0.00 0.00 0.00 42 1001.5
20260504050006 13 360 4.8 8.0 0.00 0.00 0.00 42 1001.5
20260504045904 13 360 3.2 8.0 0.00 0.00 0.00 42 1001.5
20260504045804 13 360 3.2 6.4 0.00 0.00 0.00 43 1001.5
20260504045704 13 360 3.2 6.4 0.00 0.00 0.00 43 1001.6
20260504045604 13 360 3.2 6.4 0.00 0.00 0.00 42 1001.6
20260504045519 13 360 3.2 6.4 0.00 0.00 0.00 42 1001.6
20260504045404 13 360 3.2 6.4 0.00 0.00 0.00 43 1001.8
20260504045305 13 360 3.2 6.4 0.00 0.00 0.00 43 1001.7
20260504045204 13 360 3.2 6.4 0.00 0.00 0.00 43 1001.7
20260504045104 13 360 1.6 4.8 0.00 0.00 0.00 43 1001.7
20260504045004 13 360 1.6 4.8 0.00 0.00 0.00 42 1001.8
20260504044904 13 360 1.6 4.8 0.00 0.00 0.00 42 1001.8
20260504044804 13 360 1.6 4.8 0.00 0.00 0.00 42 1001.8
20260504044705 13 360 1.6 4.8 0.00 0.00 0.00 43 1001.8
20260504044605 13 360 1.6 4.8 0.00 0.00 0.00 42 1001.8
20260504044505 13 360 1.6 4.8 0.00 0.00 0.00 42 1001.8
20260504044404 13 360 1.6 4.8 0.00 0.00 0.00 42 1001.8
20260504044304 13 360 1.6 4.8 0.00 0.00 0.00 42 1001.9
20260504044205 13 360 1.6 4.8 0.00 0.00 0.00 42 1001.9
20260504044119 13 360 1.6 4.8 0.00 0.00 0.00 42 1001.9
20260504044004 13 360 1.6 4.8 0.00 0.00 0.00 42 1001.9
20260504043905 13 360 1.6 4.8 0.00 0.00 0.00 42 1002.0
20260504043805 13 360 1.6 4.8 0.00 0.00 0.00 42 1002.0
20260504043704 13 360 1.6 3.2 0.00 0.00 0.00 42 1002.0
20260504043604 13 360 1.6 3.2 0.00 0.00 0.00 42 1002.0
20260504043504 13 360 1.6 3.2 0.00 0.00 0.00 42 1002.0
20260504043405 13 360 1.6 3.2 0.00 0.00 0.00 42 1002.1
20260504043305 13 360 1.6 3.2 0.00 0.00 0.00 42 1002.0
20260504043204 13 360 1.6 3.2 0.00 0.00 0.00 42 1002.1
20260504043118 13 360 1.6 3.2 0.00 0.00 0.00 42 1002.1
20260504043018 13 360 1.6 3.2 0.00 0.00 0.00 42 1002.1
20260504042904 13 360 1.6 3.2 0.00 0.00 0.00 42 1002.1
20260504042804 13 360 1.6 3.2 0.00 0.00 0.00 42 1002.2
20260504042704 13 360 1.6 3.2 0.00 0.00 0.00 41 1002.2
20260504042604 13 360 1.6 3.2 0.00 0.00 0.00 41 1002.2
20260504042504 13 360 1.6 3.2 0.00 0.00 0.00 41 1002.2
20260504042404 13 360 1.6 3.2 0.00 0.00 0.00 41 1002.1
20260504042304 13 360 1.6 3.2 0.00 0.00 0.00 41 1002.2
20260504042219 13 360 1.6 3.2 0.00 0.00 0.00 41 1002.2
20260504042105 13 360 1.6 3.2 0.00 0.00 0.00 41 1002.2
20260504042018 13 360 1.6 3.2 0.00 0.00 0.00 41 1002.2
20260504041918 13 360 1.6 3.2 0.00 0.00 0.00 41 1002.2
20260504041805 13 360 1.6 3.2 0.00 0.00 0.00 41 1002.3
20260504041718 13 360 1.6 3.2 0.00 0.00 0.00 41 1002.3
20260504041605 13 360 1.6 3.2 0.00 0.00 0.00 41 1002.3
20260504041519 13 360 1.6 3.2 0.00 0.00 0.00 41 1002.3
20260504041404 13 360 1.6 3.2 0.00 0.00 0.00 41 1002.3
20260504041304 13 360 1.6 3.2 0.00 0.00 0.00 41 1002.3
20260504041218 13 360 1.6 3.2 0.00 0.00 0.00 41 1002.3
20260504041104 13 360 1.6 3.2 0.00 0.00 0.00 41 1002.5
20260504041018 13 360 1.6 3.2 0.00 0.00 0.00 41 1002.5
20260504040904 13 360 1.6 3.2 0.00 0.00 0.00 41 1002.5
20260504040805 13 360 1.6 3.2 0.00 0.00 0.00 41 1002.5
20260504040704 13 360 1.6 3.2 0.00 0.00 0.00 41 1002.5
20260504040618 13 360 1.6 3.2 0.00 0.00 0.00 41 1002.5
20260504040504 13 360 1.6 3.2 0.00 0.00 0.00 41 1002.5
20260504040418 13 360 1.6 3.2 0.00 0.00 0.00 41 1002.5
20260504040304 13 360 1.6 3.2 0.00 0.00 0.00 41 1002.6
20260504040204 13 360 1.6 3.2 0.00 0.00 0.00 42 1002.6
20260504040104 13 360 1.6 3.2 0.00 0.00 0.00 42 1002.6
20260504040004 13 360 1.6 3.2 0.00 0.00 0.00 42 1002.7
20260504035904 13 360 1.6 3.2 0.00 0.00 0.00 41 1002.7
20260504035805 13 360 1.6 3.2 0.00 0.00 0.00 41 1002.7
20260504035704 13 360 1.6 3.2 0.00 0.00 0.00 41 1002.7
20260504035604 13 360 1.6 3.2 0.00 0.00 0.00 41 1002.8
20260504035504 13 360 1.6 3.2 0.00 0.00 0.00 41 1002.8
20260504035404 13 360 1.6 3.2 0.00 0.00 0.00 41 1002.8
20260504035305 13 360 1.6 3.2 0.00 0.00 0.00 41 1002.8
20260504035204 13 360 1.6 3.2 0.00 0.00 0.00 41 1002.9
20260504035104 13 360 1.6 3.2 0.00 0.00 0.00 41 1002.9
20260504035004 13 360 1.6 3.2 0.00 0.00 0.00 41 1002.9
20260504034904 13 360 1.6 3.2 0.00 0.00 0.00 41 1002.9
20260504034804 13 360 0.0 3.2 0.00 0.00 0.00 41 1002.9
20260504034705 13 360 0.0 3.2 0.00 0.00 0.00 41 1002.9
20260504034604 13 360 0.0 3.2 0.00 0.00 0.00 41 1002.9
20260504034518 13 360 0.0 3.2 0.00 0.00 0.00 41 1002.9
20260504034404 13 360 1.6 3.2 0.00 0.00 0.00 40 1003.0
20260504034304 13 360 1.6 3.2 0.00 0.00 0.00 40 1003.0
20260504034204 13 360 1.6 3.2 0.00 0.00 0.00 40 1003.0
20260504034105 13 360 0.0 3.2 0.00 0.00 0.00 40 1003.0
20260504034018 13 360 0.0 3.2 0.00 0.00 0.00 40 1003.0
20260504033904 13 360 0.0 3.2 0.00 0.00 0.00 39 1003.1
20260504033804 13 360 1.6 3.2 0.00 0.00 0.00 39 1003.1
20260504033704 13 360 1.6 3.2 0.00 0.00 0.00 39 1003.1
20260504033605 13 360 1.6 3.2 0.00 0.00 0.00 39 1003.1
20260504033505 13 360 1.6 3.2 0.00 0.00 0.00 39 1003.3
20260504033405 13 360 1.6 3.2 0.00 0.00 0.00 39 1003.3
20260504033304 13 360 1.6 3.2 0.00 0.00 0.00 39 1003.3
20260504033204 13 360 1.6 3.2 0.00 0.00 0.00 39 1003.3
20260504033118 13 360 1.6 3.2 0.00 0.00 0.00 39 1003.3
20260504033018 13 360 0.0 3.2 0.00 0.00 0.00 39 1003.4
20260504032905 13 360 0.0 3.2 0.00 0.00 0.00 39 1003.4
20260504032805 13 360 0.0 3.2 0.00 0.00 0.00 39 1003.4
20260504032704 13 360 0.0 3.2 0.00 0.00 0.00 39 1003.4
20260504032604 13 360 0.0 3.2 0.00 0.00 0.00 38 1003.4
20260504032504 14 360 0.0 3.2 0.00 0.00 0.00 38 1003.4
20260504032404 14 0 0.0 0.0 0.00 0.00 0.00 38 1003.4
20260504032318 14 0 0.0 0.0 0.00 0.00 0.00 38 1003.4
20260504032204 14 0 0.0 0.0 0.00 0.00 0.00 38 1003.4
20260504032104 14 0 0.0 0.0 0.00 0.00 0.00 38 1003.4
20260504032004 14 0 0.0 0.0 0.00 0.00 0.00 38 1003.5
20260504031905 14 0 0.0 0.0 0.00 0.00 0.00 38 1003.5
20260504031805 14 0 0.0 0.0 0.00 0.00 0.00 38 1003.6
20260504031704 14 0 0.0 0.0 0.00 0.00 0.00 38 1003.5
20260504031604 14 0 0.0 3.2 0.00 0.00 0.00 38 1003.6
20260504031505 14 0 0.0 3.2 0.00 0.00 0.00 38 1003.6
20260504031405 14 0 0.0 3.2 0.00 0.00 0.00 37 1003.6
20260504031318 14 0 0.0 3.2 0.00 0.00 0.00 37 1003.6
20260504031204 14 0 0.0 3.2 0.00 0.00 0.00 37 1003.6
20260504031104 14 0 0.0 3.2 0.00 0.00 0.00 37 1003.7
20260504031004 14 0 0.0 3.2 0.00 0.00 0.00 36 1003.7
20260504030904 14 0 0.0 3.2 0.00 0.00 0.00 36 1003.7
20260504030804 14 0 0.0 3.2 0.00 0.00 0.00 36 1003.7
20260504030704 14 0 0.0 3.2 0.00 0.00 0.00 36 1003.7
20260504030604 14 0 0.0 3.2 0.00 0.00 0.00 36 1003.7
20260504030504 15 0 0.0 3.2 0.00 0.00 0.00 36 1003.7
20260504030404 15 0 0.0 0.0 0.00 0.00 0.00 36 1003.7
20260504030304 15 0 0.0 0.0 0.00 0.00 0.00 35 1003.7
20260504030218 15 0 0.0 0.0 0.00 0.00 0.00 35 1003.7
20260504030104 15 0 0.0 1.6 0.00 0.00 0.00 35 1003.8
20260504030005 15 360 0.0 3.2 0.00 0.00 0.00 35 1003.8
20260504025918 15 360 0.0 3.2 0.00 0.00 0.00 35 1003.8
20260504025806 15 360 0.0 3.2 0.00 0.00 0.00 36 1003.7
20260504025704 15 360 0.0 3.2 0.00 0.00 0.00 36 1003.8
20260504025605 15 360 1.6 3.2 0.00 0.00 0.00 36 1003.8
20260504025505 15 360 1.6 3.2 0.00 0.00 0.00 35 1003.8
20260504025418 15 360 1.6 3.2 0.00 0.00 0.00 35 1003.8
20260504025304 15 360 1.6 3.2 0.00 0.00 0.00 35 1003.8
20260504025204 15 360 1.6 3.2 0.00 0.00 0.00 35 1003.8
20260504025105 15 360 1.6 3.2 0.00 0.00 0.00 35 1003.8
20260504025005 15 360 1.6 3.2 0.00 0.00 0.00 35 1003.8
20260504024905 15 360 1.6 3.2 0.00 0.00 0.00 35 1003.9
20260504024805 15 360 1.6 3.2 0.00 0.00 0.00 35 1003.8
20260504024719 15 360 1.6 3.2 0.00 0.00 0.00 35 1003.8
20260504024604 15 360 1.6 3.2 0.00 0.00 0.00 35 1003.8
20260504024505 15 360 1.6 3.2 0.00 0.00 0.00 35 1003.8
20260504024404 15 360 1.6 3.2 0.00 0.00 0.00 35 1003.8
20260504024304 15 360 1.6 3.2 0.00 0.00 0.00 35 1003.9
20260504024204 15 360 1.6 3.2 0.00 0.00 0.00 35 1003.8
20260504024118 15 360 1.6 3.2 0.00 0.00 0.00 35 1003.8
20260504024004 15 360 1.6 3.2 0.00 0.00 0.00 34 1003.9
20260504023904 15 360 1.6 3.2 0.00 0.00 0.00 34 1003.8
20260504023819 15 360 1.6 3.2 0.00 0.00 0.00 34 1003.8
20260504023705 15 360 1.6 3.2 0.00 0.00 0.00 34 1003.8
20260504023605 15 360 1.6 3.2 0.00 0.00 0.00 34 1003.8
20260504023504 15 360 1.6 3.2 0.00 0.00 0.00 34 1003.8
20260504023404 15 360 1.6 3.2 0.00 0.00 0.00 34 1003.8
20260504023304 15 360 1.6 3.2 0.00 0.00 0.00 34 1003.8
20260504023205 15 360 1.6 3.2 0.00 0.00 0.00 34 1003.8
20260504023104 15 360 1.6 3.2 0.00 0.00 0.00 34 1003.8
20260504023004 15 360 1.6 3.2 0.00 0.00 0.00 34 1003.8
20260504022905 15 360 1.6 1.6 0.00 0.00 0.00 34 1003.8
20260504022804 15 360 1.6 3.2 0.00 0.00 0.00 34 1003.8
20260504022704 15 360 1.6 3.2 0.00 0.00 0.00 34 1003.8
20260504022605 15 360 1.6 3.2 0.00 0.00 0.00 34 1003.8
20260504022504 15 360 1.6 3.2 0.00 0.00 0.00 34 1003.8
20260504022418 15 360 1.6 3.2 0.00 0.00 0.00 34 1003.8
20260504022305 16 360 0.0 3.2 0.00 0.00 0.00 34 1003.8
20260504022204 16 360 0.0 3.2 0.00 0.00 0.00 34 1003.8
20260504022104 16 360 0.0 3.2 0.00 0.00 0.00 34 1003.8
20260504022004 16 360 0.0 3.2 0.00 0.00 0.00 34 1003.8
20260504021904 16 360 0.0 3.2 0.00 0.00 0.00 34 1003.8
20260504021818 16 360 0.0 3.2 0.00 0.00 0.00 34 1003.8
20260504021704 16 360 0.0 3.2 0.00 0.00 0.00 34 1003.8
20260504021604 16 360 0.0 3.2 0.00 0.00 0.00 34 1003.8
20260504021504 16 360 0.0 3.2 0.00 0.00 0.00 34 1003.8
20260504021404 16 360 0.0 3.2 0.00 0.00 0.00 34 1003.8
20260504021305 16 360 0.0 3.2 0.00 0.00 0.00 34 1003.8
20260504021204 16 360 0.0 3.2 0.00 0.00 0.00 34 1003.8
20260504021104 16 360 1.6 3.2 0.00 0.00 0.00 34 1003.8
20260504021004 16 360 1.6 3.2 0.00 0.00 0.00 34 1003.8
20260504020904 16 360 1.6 3.2 0.00 0.00 0.00 33 1003.8
20260504020804 16 360 1.6 3.2 0.00 0.00 0.00 33 1003.7
20260504020705 16 360 1.6 3.2 0.00 0.00 0.00 34 1003.8
20260504020604 16 360 1.6 3.2 0.00 0.00 0.00 33 1003.8
20260504020505 16 360 1.6 3.2 0.00 0.00 0.00 32 1003.8
20260504020418 16 360 1.6 3.2 0.00 0.00 0.00 32 1003.8
20260504020304 16 360 1.6 3.2 0.00 0.00 0.00 31 1003.8
20260504020218 16 360 1.6 3.2 0.00 0.00 0.00 31 1003.8
20260504020104 16 360 1.6 3.2 0.00 0.00 0.00 31 1003.7
20260504015904 17 360 1.6 3.2 0.00 0.00 0.00 31 1003.7
20260504015804 17 360 1.6 3.2 0.00 0.00 0.00 31 1003.7
20260504015704 17 360 1.6 3.2 0.00 0.00 0.00 31 1003.7
20260504015619 17 360 1.6 3.2 0.00 0.00 0.00 31 1003.7
20260504015504 17 360 1.6 3.2 0.00 0.00 0.00 31 1003.7
20260504015418 17 360 1.6 3.2 0.00 0.00 0.00 31 1003.7
20260504015305 17 360 1.6 3.2 0.00 0.00 0.00 31 1003.7
20260504015204 17 360 1.6 3.2 0.00 0.00 0.00 30 1003.7
20260504015104 17 360 1.6 3.2 0.00 0.00 0.00 30 1003.8
20260504015004 17 360 1.6 1.6 0.00 0.00 0.00 30 1003.7
20260504014905 17 360 1.6 3.2 0.00 0.00 0.00 30 1003.8
20260504014818 17 360 1.6 3.2 0.00 0.00 0.00 30 1003.8
20260504014704 17 360 1.6 3.2 0.00 0.00 0.00 30 1003.8
20260504014604 17 360 1.6 3.2 0.00 0.00 0.00 30 1003.8
20260504014505 17 360 0.0 3.2 0.00 0.00 0.00 30 1003.8
20260504014404 17 360 0.0 3.2 0.00 0.00 0.00 30 1003.8
20260504014318 17 360 0.0 3.2 0.00 0.00 0.00 30 1003.8
20260504014204 17 360 1.6 3.2 0.00 0.00 0.00 30 1003.8
20260504014118 17 360 1.6 3.2 0.00 0.00 0.00 30 1003.8
20260504014004 17 339 1.6 3.2 0.00 0.00 0.00 30 1003.8
20260504013904 17 303 1.6 3.2 0.00 0.00 0.00 30 1003.8
20260504013804 17 289 1.6 3.2 0.00 0.00 0.00 29 1003.8
20260504013719 17 289 1.6 3.2 0.00 0.00 0.00 29 1003.8
20260504013605 17 266 1.6 3.2 0.00 0.00 0.00 29 1003.8
20260504013504 17 264 1.6 3.2 0.00 0.00 0.00 29 1003.8
20260504013405 17 264 1.6 3.2 0.00 0.00 0.00 29 1003.8
20260504013318 17 264 1.6 3.2 0.00 0.00 0.00 29 1003.8
20260504013205 17 257 1.6 4.8 0.00 0.00 0.00 29 1003.8
20260504013105 17 255 3.2 4.8 0.00 0.00 0.00 29 1003.8
20260504013004 17 255 3.2 4.8 0.00 0.00 0.00 29 1003.8
20260504012918 17 255 3.2 4.8 0.00 0.00 0.00 29 1003.8
20260504012805 18 253 3.2 4.8 0.00 0.00 0.00 29 1003.8
20260504012704 18 253 3.2 4.8 0.00 0.00 0.00 29 1003.9
20260504012604 18 254 3.2 4.8 0.00 0.00 0.00 29 1003.8
20260504012504 18 254 3.2 4.8 0.00 0.00 0.00 28 1003.9
20260504012404 18 256 3.2 4.8 0.00 0.00 0.00 29 1003.8
20260504012318 18 256 3.2 4.8 0.00 0.00 0.00 29 1003.8
20260504012204 18 253 3.2 4.8 0.00 0.00 0.00 28 1003.9
20260504012105 18 252 3.2 4.8 0.00 0.00 0.00 28 1003.9
20260504012005 18 254 3.2 4.8 0.00 0.00 0.00 28 1003.9
20260504011904 18 253 3.2 4.8 0.00 0.00 0.00 28 1003.9
20260504011804 18 256 3.2 4.8 0.00 0.00 0.00 28 1003.9
20260504011705 18 256 1.6 4.8 0.00 0.00 0.00 28 1003.9
20260504011618 18 256 1.6 4.8 0.00 0.00 0.00 28 1003.9
20260504011504 18 252 1.6 4.8 0.00 0.00 0.00 28 1003.9
20260504011419 18 252 1.6 4.8 0.00 0.00 0.00 28 1003.9
20260504011304 18 253 1.6 4.8 0.00 0.00 0.00 28 1003.9
20260504011204 18 254 3.2 4.8 0.00 0.00 0.00 28 1003.9
20260504011105 18 254 3.2 4.8 0.00 0.00 0.00 28 1003.9
20260504011004 18 254 3.2 4.8 0.00 0.00 0.00 28 1003.9
20260504010904 18 257 3.2 8.0 0.00 0.00 0.00 27 1003.9
20260504010804 18 251 3.2 8.0 0.00 0.00 0.00 27 1003.9
20260504010704 18 252 3.2 8.0 0.00 0.00 0.00 27 1003.9
20260504010604 18 252 4.8 9.7 0.00 0.00 0.00 27 1003.8
20260504010505 18 254 4.8 9.7 0.00 0.00 0.00 27 1003.9
20260504010404 18 263 4.8 9.7 0.00 0.00 0.00 27 1003.9
20260504010304 18 263 4.8 9.7 0.00 0.00 0.00 27 1004.0
20260504010219 18 263 4.8 9.7 0.00 0.00 0.00 27 1004.0
20260504010118 18 264 4.8 9.7 0.00 0.00 0.00 27 1004.0
20260504010005 18 265 4.8 9.7 0.00 0.00 0.00 27 1003.9
20260504005918 18 265 4.8 9.7 0.00 0.00 0.00 27 1003.9
20260504005805 18 274 3.2 9.7 0.00 0.00 0.00 27 1004.0
20260504005704 18 269 3.2 9.7 0.00 0.00 0.00 27 1004.0
20260504005604 18 269 3.2 9.7 0.00 0.00 0.00 27 1004.0
20260504005504 18 274 3.2 6.4 0.00 0.00 0.00 27 1004.0
20260504005404 18 257 3.2 9.7 0.00 0.00 0.00 27 1004.0
20260504005305 19 251 3.2 9.7 0.00 0.00 0.00 27 1004.0
20260504005218 19 251 3.2 9.7 0.00 0.00 0.00 27 1004.0
20260504005104 19 245 3.2 9.7 0.00 0.00 0.00 27 1004.1
20260504005004 19 244 3.2 9.7 0.00 0.00 0.00 27 1004.1
20260504004904 19 243 3.2 9.7 0.00 0.00 0.00 26 1004.0
20260504004805 19 244 3.2 9.7 0.00 0.00 0.00 27 1004.0
20260504004704 19 248 3.2 9.7 0.00 0.00 0.00 27 1004.1
20260504004604 19 249 3.2 9.7 0.00 0.00 0.00 27 1004.1
20260504004504 19 249 3.2 9.7 0.00 0.00 0.00 27 1004.1
20260504004404 19 248 3.2 9.7 0.00 0.00 0.00 27 1004.0
20260504004305 19 257 3.2 6.4 0.00 0.00 0.00 26 1004.0
20260504004204 19 253 3.2 6.4 0.00 0.00 0.00 27 1004.0
20260504004104 19 255 3.2 6.4 0.00 0.00 0.00 27 1004.0
20260504004005 19 256 3.2 6.4 0.00 0.00 0.00 27 1004.1
20260504003904 19 256 3.2 6.4 0.00 0.00 0.00 26 1004.0
20260504003805 19 253 3.2 6.4 0.00 0.00 0.00 27 1004.1
20260504003705 19 251 3.2 6.4 0.00 0.00 0.00 27 1004.1
20260504003604 19 252 3.2 6.4 0.00 0.00 0.00 27 1004.0
20260504003518 19 252 3.2 6.4 0.00 0.00 0.00 27 1004.0
20260504003404 19 253 3.2 6.4 0.00 0.00 0.00 26 1004.1
20260504003305 19 249 3.2 6.4 0.00 0.00 0.00 26 1004.1
20260504003204 19 253 3.2 6.4 0.00 0.00 0.00 26 1004.1
20260504003104 19 255 3.2 6.4 0.00 0.00 0.00 26 1004.1
20260504003004 19 256 3.2 6.4 0.00 0.00 0.00 26 1004.2
20260504002918 19 256 3.2 6.4 0.00 0.00 0.00 26 1004.2
20260504002804 19 261 3.2 9.7 0.00 0.00 0.00 26 1004.1
20260504002704 19 261 4.8 9.7 0.00 0.00 0.00 26 1004.1
20260504002604 19 255 4.8 9.7 0.00 0.00 0.00 26 1004.1
20260504002505 19 256 4.8 9.7 0.00 0.00 0.00 26 1004.1
20260504002404 19 256 4.8 9.7 0.00 0.00 0.00 26 1004.1
20260504002318 19 256 4.8 9.7 0.00 0.00 0.00 26 1004.1
20260504002204 19 254 4.8 9.7 0.00 0.00 0.00 26 1004.2
20260504002104 19 259 4.8 9.7 0.00 0.00 0.00 25 1004.1
20260504002004 19 256 4.8 9.7 0.00 0.00 0.00 25 1004.2
20260504001904 19 257 4.8 9.7 0.00 0.00 0.00 26 1004.2
20260504001804 19 256 4.8 9.7 0.00 0.00 0.00 26 1004.1
20260504001704 19 254 6.4 16.1 0.00 0.00 0.00 25 1004.2
20260504001604 19 252 6.4 16.1 0.00 0.00 0.00 26 1004.1
20260504001504 19 252 6.4 16.1 0.00 0.00 0.00 26 1004.1
20260504001404 19 249 6.4 16.1 0.00 0.00 0.00 25 1004.2
20260504001318 19 249 6.4 16.1 0.00 0.00 0.00 25 1004.2
20260504001204 19 254 6.4 16.1 0.00 0.00 0.00 25 1004.2
20260504001106 19 252 6.4 16.1 0.00 0.00 0.00 25 1004.2
20260504001005 19 252 6.4 16.1 0.00 0.00 0.00 25 1004.1
20260504000918 19 252 6.4 16.1 0.00 0.00 0.00 25 1004.1
20260504000804 19 248 6.4 16.1 0.00 0.00 0.00 25 1004.2
20260504000704 19 250 6.4 16.1 0.00 0.00 0.00 25 1004.2
20260504000604 20 259 4.8 8.0 0.00 0.00 0.00 25 1004.2
20260504000504 19 258 4.8 8.0 0.00 0.00 0.00 25 1004.2
20260504000404 20 260 4.8 8.0 0.00 0.00 0.00 25 1004.2
20260504000304 20 259 6.4 16.1 0.00 0.00 0.00 25 1004.2
20260504000204 20 252 6.4 16.1 0.00 0.00 0.00 25 1004.2
20260504000104 20 254 6.4 16.1 0.00 0.00 0.00 25 1004.2
20260504000004 20 254 6.4 16.1 0.00 0.00 0.00 25 1004.2
20260503235905 20 253 6.4 16.1 0.00 0.00 0.00 25 1004.2
20260503235804 20 260 6.4 16.1 0.00 0.00 0.00 25 1004.2
20260503235705 20 260 6.4 16.1 0.00 0.00 0.00 24 1004.2
20260503235604 20 261 6.4 16.1 0.00 0.00 0.00 24 1004.2
20260503235504 20 259 6.4 16.1 0.00 0.00 0.00 24 1004.2
20260503235404 20 263 6.4 16.1 0.00 0.00 0.00 24 1004.2
20260503235304 20 263 6.4 16.1 0.00 0.00 0.00 24 1004.2
20260503235204 20 276 4.8 12.9 0.00 0.00 0.00 24 1004.2
20260503235104 20 274 6.4 16.1 0.00 0.00 0.00 24 1004.1
20260503235005 20 277 6.4 16.1 0.00 0.00 0.00 24 1004.2
20260503234904 20 280 6.4 16.1 0.00 0.00 0.00 24 1004.2
20260503234804 20 286 6.4 16.1 0.00 0.00 0.00 24 1004.2
20260503234704 20 291 6.4 16.1 0.00 0.00 0.00 24 1004.2
20260503234604 20 297 6.4 16.1 0.00 0.00 0.00 24 1004.3
20260503234504 20 297 6.4 16.1 0.00 0.00 0.00 24 1004.3
20260503234405 20 292 8.0 16.1 0.00 0.00 0.00 23 1004.2
20260503234304 20 293 8.0 16.1 0.00 0.00 0.00 23 1004.2
20260503234218 20 293 8.0 16.1 0.00 0.00 0.00 23 1004.2
20260503234104 20 288 6.4 16.1 0.00 0.00 0.00 23 1004.2
20260503234004 20 290 6.4 12.9 0.00 0.00 0.00 23 1004.2
20260503233904 20 296 6.4 12.9 0.00 0.00 0.00 23 1004.2
20260503233818 20 296 6.4 12.9 0.00 0.00 0.00 23 1004.2
20260503233704 20 289 6.4 12.9 0.00 0.00 0.00 23 1004.2
20260503233604 20 289 6.4 12.9 0.00 0.00 0.00 23 1004.2
20260503233504 20 291 6.4 12.9 0.00 0.00 0.00 23 1004.2
20260503233404 20 298 8.0 14.5 0.00 0.00 0.00 23 1004.2
20260503233318 20 298 8.0 14.5 0.00 0.00 0.00 23 1004.2
20260503233204 21 309 6.4 14.5 0.00 0.00 0.00 23 1004.2
20260503233104 21 314 6.4 14.5 0.00 0.00 0.00 23 1004.2
20260503233004 21 314 6.4 14.5 0.00 0.00 0.00 23 1004.2
20260503232904 21 314 6.4 14.5 0.00 0.00 0.00 23 1004.2
20260503232804 21 315 6.4 14.5 0.00 0.00 0.00 23 1004.2
20260503232704 21 310 8.0 24.1 0.00 0.00 0.00 22 1004.2
20260503232618 21 310 8.0 24.1 0.00 0.00 0.00 22 1004.2
20260503232504 21 306 8.0 24.1 0.00 0.00 0.00 22 1004.2
20260503232404 21 304 8.0 24.1 0.00 0.00 0.00 22 1004.2
20260503232305 21 301 8.0 24.1 0.00 0.00 0.00 22 1004.1
20260503232204 21 303 6.4 24.1 0.00 0.00 0.00 23 1004.3
20260503232119 21 303 6.4 24.1 0.00 0.00 0.00 23 1004.3
20260503232004 21 292 6.4 24.1 0.00 0.00 0.00 23 1004.3
20260503231904 21 288 6.4 24.1 0.00 0.00 0.00 23 1004.3
20260503231804 21 285 6.4 24.1 0.00 0.00 0.00 23 1004.3
20260503231704 21 288 4.8 24.1 0.00 0.00 0.00 22 1004.3
20260503231604 21 291 4.8 14.5 0.00 0.00 0.00 23 1004.3
20260503231504 21 291 4.8 14.5 0.00 0.00 0.00 23 1004.3
20260503231404 21 299 4.8 14.5 0.00 0.00 0.00 22 1004.3
20260503231304 21 303 4.8 14.5 0.00 0.00 0.00 22 1004.4
20260503231204 21 297 4.8 14.5 0.00 0.00 0.00 23 1004.3
20260503231104 21 296 4.8 14.5 0.00 0.00 0.00 22 1004.4
20260503231004 21 295 4.8 14.5 0.00 0.00 0.00 23 1004.4
20260503230904 21 291 4.8 14.5 0.00 0.00 0.00 23 1004.5
20260503230804 21 288 4.8 14.5 0.00 0.00 0.00 22 1004.4
20260503230705 21 288 6.4 14.5 0.00 0.00 0.00 22 1004.4
20260503230618 21 288 6.4 14.5 0.00 0.00 0.00 22 1004.4
20260503230504 21 278 8.0 19.3 0.00 0.00 0.00 22 1004.4
20260503230404 21 266 8.0 19.3 0.00 0.00 0.00 22 1004.5
20260503230305 21 274 8.0 19.3 0.00 0.00 0.00 23 1004.4
20260503230218 21 274 8.0 19.3 0.00 0.00 0.00 23 1004.4
20260503230105 21 272 8.0 19.3 0.00 0.00 0.00 23 1004.4
20260503230004 21 272 8.0 19.3 0.00 0.00 0.00 23 1004.4
20260503225905 21 274 8.0 19.3 0.00 0.00 0.00 23 1004.5
20260503225818 21 274 8.0 19.3 0.00 0.00 0.00 23 1004.5
20260503225705 21 275 9.7 19.3 0.00 0.00 0.00 22 1004.5
20260503225604 21 280 8.0 19.3 0.00 0.00 0.00 22 1004.5
20260503225504 21 279 8.0 19.3 0.00 0.00 0.00 22 1004.5
20260503225418 21 279 8.0 19.3 0.00 0.00 0.00 22 1004.5
20260503225305 21 278 6.4 14.5 0.00 0.00 0.00 23 1004.5
20260503225218 21 278 6.4 14.5 0.00 0.00 0.00 23 1004.5
20260503225104 21 274 6.4 14.5 0.00 0.00 0.00 23 1004.5
20260503225004 21 273 6.4 14.5 0.00 0.00 0.00 22 1004.5
20260503224904 21 277 8.0 14.5 0.00 0.00 0.00 22 1004.6
20260503224804 21 285 8.0 14.5 0.00 0.00 0.00 22 1004.6
20260503224705 21 277 6.4 14.5 0.00 0.00 0.00 24 1004.6
20260503224604 21 272 4.8 14.5 0.00 0.00 0.00 22 1004.6
20260503224504 21 272 4.8 14.5 0.00 0.00 0.00 22 1004.6
20260503224404 21 270 4.8 12.9 0.00 0.00 0.00 22 1004.6
20260503224304 21 260 4.8 19.3 0.00 0.00 0.00 23 1004.5
20260503224204 21 258 6.4 19.3 0.00 0.00 0.00 23 1004.6
20260503224104 21 252 6.4 19.3 0.00 0.00 0.00 22 1004.5
20260503224004 21 249 6.4 19.3 0.00 0.00 0.00 22 1004.5
20260503223904 21 244 6.4 19.3 0.00 0.00 0.00 23 1004.5
20260503223818 21 244 6.4 19.3 0.00 0.00 0.00 23 1004.5
20260503223704 21 245 8.0 19.3 0.00 0.00 0.00 23 1004.5
20260503223604 21 248 8.0 19.3 0.00 0.00 0.00 23 1004.6
20260503223504 21 256 8.0 19.3 0.00 0.00 0.00 24 1004.6
20260503223405 21 255 8.0 19.3 0.00 0.00 0.00 24 1004.6
20260503223304 21 262 6.4 19.3 0.00 0.00 0.00 22 1004.6
20260503223205 21 274 6.4 17.7 0.00 0.00 0.00 22 1004.6
20260503223104 21 295 6.4 19.3 0.00 0.00 0.00 23 1004.7
20260503223004 21 295 6.4 19.3 0.00 0.00 0.00 23 1004.7
20260503222904 21 298 6.4 19.3 0.00 0.00 0.00 23 1004.6
20260503222805 21 292 8.0 19.3 0.00 0.00 0.00 22 1004.6
20260503222704 21 295 8.0 19.3 0.00 0.00 0.00 22 1004.6
20260503222604 21 305 8.0 19.3 0.00 0.00 0.00 23 1004.6
20260503222505 21 302 8.0 19.3 0.00 0.00 0.00 23 1004.6
20260503222404 21 305 8.0 19.3 0.00 0.00 0.00 23 1004.6
20260503222320 21 305 8.0 19.3 0.00 0.00 0.00 23 1004.6
20260503222218 21 304 8.0 19.3 0.00 0.00 0.00 22 1004.6
20260503222119 21 296 8.0 19.3 0.00 0.00 0.00 22 1004.6
20260503222004 21 280 6.4 19.3 0.00 0.00 0.00 22 1004.7
20260503221904 21 277 6.4 16.1 0.00 0.00 0.00 21 1004.7
20260503221804 21 278 6.4 16.1 0.00 0.00 0.00 21 1004.7
20260503221704 21 271 8.0 27.4 0.00 0.00 0.00 22 1004.6
20260503221604 21 278 8.0 27.4 0.00 0.00 0.00 23 1004.7
20260503221504 21 278 8.0 27.4 0.00 0.00 0.00 23 1004.7
20260503221404 21 277 8.0 27.4 0.00 0.00 0.00 23 1004.7
20260503221304 21 276 8.0 27.4 0.00 0.00 0.00 23 1004.7
20260503221218 21 276 8.0 27.4 0.00 0.00 0.00 23 1004.7
20260503221118 21 277 8.0 27.4 0.00 0.00 0.00 23 1004.7
20260503221004 21 275 8.0 27.4 0.00 0.00 0.00 22 1004.8
20260503220919 21 275 8.0 27.4 0.00 0.00 0.00 22 1004.8
20260503220805 21 285 9.7 27.4 0.00 0.00 0.00 22 1004.8
20260503220704 21 283 9.7 27.4 0.00 0.00 0.00 22 1004.8
20260503220604 21 297 11.3 24.1 0.00 0.00 0.00 23 1004.8
20260503220504 21 291 11.3 24.1 0.00 0.00 0.00 23 1004.8
20260503220405 21 293 11.3 24.1 0.00 0.00 0.00 22 1004.8
20260503220304 21 296 11.3 24.1 0.00 0.00 0.00 22 1004.7
20260503220204 21 295 11.3 24.1 0.00 0.00 0.00 22 1004.8
20260503220105 21 304 9.7 24.1 0.00 0.00 0.00 23 1004.9
20260503220019 21 304 9.7 24.1 0.00 0.00 0.00 23 1004.9
20260503215904 21 307 9.7 24.1 0.00 0.00 0.00 26 1004.9
20260503215804 21 312 9.7 24.1 0.00 0.00 0.00 23 1004.9
20260503215705 21 316 9.7 22.5 0.00 0.00 0.00 23 1004.9
20260503215604 21 310 6.4 20.9 0.00 0.00 0.00 22 1004.9
20260503215504 21 314 8.0 17.7 0.00 0.00 0.00 22 1004.9
20260503215404 21 312 6.4 17.7 0.00 0.00 0.00 23 1004.9
20260503215304 21 311 6.4 17.7 0.00 0.00 0.00 23 1005.0
20260503215204 21 304 8.0 17.7 0.00 0.00 0.00 23 1005.0
20260503215104 21 303 8.0 17.7 0.00 0.00 0.00 23 1005.0
20260503215004 21 298 8.0 17.7 0.00 0.00 0.00 23 1005.0
20260503214904 21 295 8.0 17.7 0.00 0.00 0.00 22 1005.0
20260503214804 21 286 8.0 17.7 0.00 0.00 0.00 23 1005.1
20260503214704 21 280 8.0 17.7 0.00 0.00 0.00 23 1005.0
20260503214618 21 280 8.0 17.7 0.00 0.00 0.00 23 1005.0
20260503214504 21 277 6.4 17.7 0.00 0.00 0.00 22 1005.0
20260503214404 21 279 8.0 17.7 0.00 0.00 0.00 23 1005.1
20260503214304 21 283 8.0 17.7 0.00 0.00 0.00 23 1005.1
20260503214205 21 291 6.4 17.7 0.00 0.00 0.00 23 1005.1
20260503214118 21 291 6.4 17.7 0.00 0.00 0.00 23 1005.1
20260503214004 21 293 9.7 30.6 0.00 0.00 0.00 22 1005.1
20260503213904 21 294 9.7 30.6 0.00 0.00 0.00 22 1005.1
20260503213804 21 297 11.3 30.6 0.00 0.00 0.00 22 1005.1
20260503213704 21 295 11.3 30.6 0.00 0.00 0.00 22 1005.1
20260503213604 21 295 11.3 30.6 0.00 0.00 0.00 23 1005.1
20260503213504 21 294 11.3 30.6 0.00 0.00 0.00 22 1005.1
20260503213404 21 296 12.9 30.6 0.00 0.00 0.00 22 1005.1
20260503213304 21 298 12.9 30.6 0.00 0.00 0.00 22 1005.1
20260503213204 21 298 11.3 30.6 0.00 0.00 0.00 22 1005.2
20260503213104 21 302 11.3 30.6 0.00 0.00 0.00 23 1005.0
20260503213004 21 301 11.3 24.1 0.00 0.00 0.00 21 1005.1
20260503212918 21 301 11.3 24.1 0.00 0.00 0.00 21 1005.1
20260503212804 21 301 9.7 24.1 0.00 0.00 0.00 24 1005.0
20260503212704 21 308 8.0 24.1 0.00 0.00 0.00 24 1005.0
20260503212604 21 310 8.0 24.1 0.00 0.00 0.00 24 1005.1
20260503212518 21 310 8.0 24.1 0.00 0.00 0.00 24 1005.1
20260503212404 21 303 9.7 24.1 0.00 0.00 0.00 25 1005.2
20260503212305 21 286 9.7 24.1 0.00 0.00 0.00 23 1005.1
20260503212204 21 284 9.7 24.1 0.00 0.00 0.00 23 1005.1
20260503212104 21 285 9.7 24.1 0.00 0.00 0.00 21 1005.0
20260503212004 21 286 8.0 24.1 0.00 0.00 0.00 21 1005.1
20260503211904 21 286 6.4 22.5 0.00 0.00 0.00 23 1005.2
20260503211818 21 286 6.4 22.5 0.00 0.00 0.00 23 1005.2
20260503211705 21 286 8.0 22.5 0.00 0.00 0.00 21 1005.1
20260503211618 21 286 8.0 22.5 0.00 0.00 0.00 21 1005.1
20260503211505 21 289 9.7 25.7 0.00 0.00 0.00 21 1005.1
20260503211404 21 298 11.3 25.7 0.00 0.00 0.00 21 1005.2
20260503211318 21 298 11.3 25.7 0.00 0.00 0.00 21 1005.2
20260503211204 21 312 11.3 25.7 0.00 0.00 0.00 23 1005.2
20260503211104 21 318 11.3 25.7 0.00 0.00 0.00 21 1005.2
20260503211004 21 315 11.3 25.7 0.00 0.00 0.00 21 1005.2
20260503210904 21 322 11.3 25.7 0.00 0.00 0.00 23 1005.2
20260503210804 21 323 11.3 25.7 0.00 0.00 0.00 22 1005.3
20260503210704 21 320 11.3 25.7 0.00 0.00 0.00 20 1005.3
20260503210618 21 320 11.3 25.7 0.00 0.00 0.00 20 1005.3
20260503210518 21 318 11.3 25.7 0.00 0.00 0.00 20 1005.3
20260503210404 21 310 9.7 22.5 0.00 0.00 0.00 21 1005.3
20260503210304 21 308 9.7 22.5 0.00 0.00 0.00 21 1005.4
20260503210204 21 312 9.7 22.5 0.00 0.00 0.00 23 1005.3
20260503210104 21 302 8.0 22.5 0.00 0.00 0.00 23 1005.3
20260503210005 21 310 9.7 24.1 0.00 0.00 0.00 23 1005.3
20260503205918 21 310 9.7 24.1 0.00 0.00 0.00 23 1005.3
20260503205804 21 312 11.3 24.1 0.00 0.00 0.00 21 1005.3
20260503205704 21 313 11.3 24.1 0.00 0.00 0.00 21 1005.3
20260503205618 21 313 11.3 24.1 0.00 0.00 0.00 21 1005.3
20260503205504 21 310 11.3 24.1 0.00 0.00 0.00 24 1005.4
20260503205405 21 311 9.7 24.1 0.00 0.00 0.00 24 1005.4
20260503205304 21 313 11.3 24.1 0.00 0.00 0.00 24 1005.4
20260503205204 21 302 9.7 24.1 0.00 0.00 0.00 24 1005.3
20260503205105 21 297 9.7 24.1 0.00 0.00 0.00 24 1005.3
20260503205004 21 285 8.0 24.1 0.00 0.00 0.00 24 1005.2
20260503204904 21 270 8.0 19.3 0.00 0.00 0.00 24 1005.3
20260503204804 21 269 6.4 19.3 0.00 0.00 0.00 23 1005.2
20260503204704 21 264 6.4 16.1 0.00 0.00 0.00 23 1005.3
20260503204604 21 261 8.0 19.3 0.00 0.00 0.00 25 1005.3
20260503204505 21 272 8.0 19.3 0.00 0.00 0.00 26 1005.3
20260503204404 21 277 8.0 19.3 0.00 0.00 0.00 24 1005.2
20260503204304 21 279 9.7 19.3 0.00 0.00 0.00 24 1005.3
20260503204204 21 297 9.7 19.3 0.00 0.00 0.00 22 1005.3
20260503204104 21 299 9.7 19.3 0.00 0.00 0.00 24 1005.3
20260503204004 21 308 8.0 19.3 0.00 0.00 0.00 26 1005.3
20260503203904 21 311 8.0 19.3 0.00 0.00 0.00 26 1005.3
20260503203804 21 308 9.7 19.3 0.00 0.00 0.00 25 1005.3
20260503203704 21 315 9.7 19.3 0.00 0.00 0.00 24 1005.3
20260503203604 21 317 9.7 19.3 0.00 0.00 0.00 26 1005.3
20260503203504 20 317 9.7 17.7 0.00 0.00 0.00 26 1005.2
20260503203404 20 308 9.7 17.7 0.00 0.00 0.00 26 1005.3
20260503203304 20 305 9.7 17.7 0.00 0.00 0.00 27 1005.4
20260503203204 20 296 11.3 25.7 0.00 0.00 0.00 25 1005.5
20260503203104 20 297 11.3 25.7 0.00 0.00 0.00 24 1005.5
20260503203018 20 297 11.3 25.7 0.00 0.00 0.00 24 1005.5
20260503202904 20 290 11.3 25.7 0.00 0.00 0.00 25 1005.5
20260503202804 21 290 11.3 25.7 0.00 0.00 0.00 25 1005.5
20260503202704 21 288 11.3 25.7 0.00 0.00 0.00 26 1005.6
20260503202604 21 292 11.3 25.7 0.00 0.00 0.00 26 1005.5
20260503202504 21 290 9.7 25.7 0.00 0.00 0.00 27 1005.5
20260503202404 21 296 9.7 25.7 0.00 0.00 0.00 27 1005.4
20260503202304 21 296 9.7 25.7 0.00 0.00 0.00 26 1005.4
20260503202204 21 295 9.7 25.7 0.00 0.00 0.00 25 1005.4
20260503202104 21 295 9.7 24.1 0.00 0.00 0.00 27 1005.4
20260503202018 21 295 9.7 24.1 0.00 0.00 0.00 27 1005.4
20260503201904 21 320 9.7 24.1 0.00 0.00 0.00 26 1005.4
20260503201804 21 322 11.3 24.1 0.00 0.00 0.00 27 1005.5
20260503201718 21 322 11.3 24.1 0.00 0.00 0.00 27 1005.5
20260503201618 21 315 11.3 24.1 0.00 0.00 0.00 26 1005.5
20260503201504 21 317 9.7 24.1 0.00 0.00 0.00 26 1005.6
20260503201418 21 317 9.7 24.1 0.00 0.00 0.00 26 1005.6
20260503201304 21 320 9.7 24.1 0.00 0.00 0.00 28 1005.5
20260503201204 21 320 9.7 22.5 0.00 0.00 0.00 28 1005.5
20260503201118 21 320 9.7 22.5 0.00 0.00 0.00 28 1005.5
20260503201018 21 307 9.7 20.9 0.00 0.00 0.00 28 1005.5
20260503200904 21 289 9.7 20.9 0.00 0.00 0.00 26 1005.5
20260503200804 21 278 8.0 20.9 0.00 0.00 0.00 26 1005.5
20260503200704 21 287 8.0 19.3 0.00 0.00 0.00 26 1005.5
20260503200618 21 287 8.0 19.3 0.00 0.00 0.00 26 1005.5
20260503200504 21 282 8.0 19.3 0.00 0.00 0.00 27 1005.4
20260503200404 21 279 8.0 19.3 0.00 0.00 0.00 27 1005.4
20260503200304 21 281 8.0 19.3 0.00 0.00 0.00 27 1005.4
20260503200204 21 279 8.0 19.3 0.00 0.00 0.00 28 1005.4
20260503200104 21 294 8.0 19.3 0.00 0.00 0.00 27 1005.5
20260503200004 21 301 8.0 19.3 0.00 0.00 0.00 27 1005.5
20260503195904 21 302 8.0 19.3 0.00 0.00 0.00 30 1005.5
20260503195818 21 302 8.0 19.3 0.00 0.00 0.00 30 1005.5
20260503195704 20 299 8.0 19.3 0.00 0.00 0.00 26 1005.5
20260503195604 20 297 9.7 20.9 0.00 0.00 0.00 26 1005.5
20260503195504 20 299 9.7 20.9 0.00 0.00 0.00 27 1005.5
20260503195404 20 299 9.7 20.9 0.00 0.00 0.00 27 1005.5
20260503195304 20 297 9.7 20.9 0.00 0.00 0.00 28 1005.6
20260503195204 20 299 9.7 20.9 0.00 0.00 0.00 25 1005.6
20260503195104 20 298 9.7 20.9 0.00 0.00 0.00 27 1005.6
20260503195018 20 298 9.7 20.9 0.00 0.00 0.00 27 1005.6
20260503194904 20 306 9.7 20.9 0.00 0.00 0.00 27 1005.8
20260503194818 20 306 9.7 20.9 0.00 0.00 0.00 27 1005.8
20260503194704 20 324 9.7 20.9 0.00 0.00 0.00 25 1005.7
20260503194604 20 325 9.7 20.9 0.00 0.00 0.00 26 1005.7
20260503194504 20 328 11.3 25.7 0.00 0.00 0.00 27 1005.8
20260503194404 20 326 11.3 25.7 0.00 0.00 0.00 24 1005.8
20260503194305 20 324 11.3 25.7 0.00 0.00 0.00 24 1005.7
20260503194204 20 319 11.3 25.7 0.00 0.00 0.00 23 1005.8
20260503194119 20 319 11.3 25.7 0.00 0.00 0.00 23 1005.8
20260503194018 20 312 11.3 25.7 0.00 0.00 0.00 23 1005.8
20260503193904 21 300 11.3 25.7 0.00 0.00 0.00 24 1005.9
20260503193819 21 300 11.3 25.7 0.00 0.00 0.00 24 1005.9
20260503193704 20 291 11.3 25.7 0.00 0.00 0.00 23 1005.8
20260503193604 21 289 12.9 25.7 0.00 0.00 0.00 23 1005.8
20260503193504 21 282 11.3 25.7 0.00 0.00 0.00 22 1005.8
20260503193419 21 282 11.3 25.7 0.00 0.00 0.00 22 1005.8
20260503193304 21 279 9.7 22.5 0.00 0.00 0.00 23 1005.8
20260503193218 21 279 9.7 22.5 0.00 0.00 0.00 23 1005.8
20260503193104 21 291 9.7 22.5 0.00 0.00 0.00 24 1005.9
20260503193005 21 289 9.7 22.5 0.00 0.00 0.00 24 1005.8
20260503192904 21 297 9.7 22.5 0.00 0.00 0.00 24 1005.9
20260503192804 21 297 9.7 22.5 0.00 0.00 0.00 25 1005.9
20260503192718 21 297 9.7 22.5 0.00 0.00 0.00 25 1005.9
20260503192604 21 307 8.0 20.9 0.00 0.00 0.00 25 1005.8
20260503192504 21 321 8.0 20.9 0.00 0.00 0.00 28 1005.8
20260503192405 21 318 9.7 20.9 0.00 0.00 0.00 28 1005.8
20260503192305 21 312 9.7 20.9 0.00 0.00 0.00 26 1005.8
20260503192204 21 308 11.3 20.9 0.00 0.00 0.00 30 1005.8
20260503192104 21 308 9.7 20.9 0.00 0.00 0.00 27 1005.8
20260503192004 20 310 9.7 20.9 0.00 0.00 0.00 27 1005.9
20260503191905 20 305 11.3 20.9 0.00 0.00 0.00 28 1005.9
20260503191805 20 312 12.9 20.9 0.00 0.00 0.00 28 1005.8
20260503191704 20 308 11.3 20.9 0.00 0.00 0.00 27 1005.9
20260503191605 20 306 11.3 20.9 0.00 0.00 0.00 28 1005.8
20260503191504 20 301 9.7 20.9 0.00 0.00 0.00 29 1005.9
20260503191404 20 308 9.7 19.3 0.00 0.00 0.00 29 1005.9
20260503191318 20 308 9.7 19.3 0.00 0.00 0.00 29 1005.9
20260503191204 20 322 8.0 17.7 0.00 0.00 0.00 29 1005.8
20260503191104 20 321 8.0 17.7 0.00 0.00 0.00 29 1005.9
20260503191018 20 321 8.0 17.7 0.00 0.00 0.00 29 1005.9
20260503190904 20 327 8.0 17.7 0.00 0.00 0.00 29 1005.9
20260503190804 20 321 8.0 17.7 0.00 0.00 0.00 30 1005.9
20260503190704 20 334 6.4 14.5 0.00 0.00 0.00 31 1005.8
20260503190604 20 332 6.4 14.5 0.00 0.00 0.00 29 1005.9
20260503190518 20 332 6.4 14.5 0.00 0.00 0.00 29 1005.9
20260503190418 20 335 8.0 19.3 0.00 0.00 0.00 29 1005.9
20260503190304 20 324 9.7 19.3 0.00 0.00 0.00 31 1005.9
20260503190205 20 324 9.7 19.3 0.00 0.00 0.00 29 1005.8
20260503190104 20 320 11.3 19.3 0.00 0.00 0.00 28 1005.8
20260503190004 20 316 11.3 19.3 0.00 0.00 0.00 29 1005.8
20260503185904 20 309 9.7 19.3 0.00 0.00 0.00 29 1005.9
20260503185804 20 309 9.7 19.3 0.00 0.00 0.00 30 1005.9
20260503185704 20 300 9.7 19.3 0.00 0.00 0.00 30 1005.9
20260503185604 20 296 9.7 19.3 0.00 0.00 0.00 29 1005.9
20260503185504 20 293 8.0 19.3 0.00 0.00 0.00 29 1005.9
20260503185404 20 292 8.0 19.3 0.00 0.00 0.00 29 1006.0
20260503185305 20 285 9.7 20.9 0.00 0.00 0.00 29 1005.9
20260503185218 20 285 9.7 20.9 0.00 0.00 0.00 29 1005.9
20260503185118 20 289 9.7 20.9 0.00 0.00 0.00 28 1005.9
20260503185018 20 290 8.0 20.9 0.00 0.00 0.00 26 1005.9
20260503184904 20 304 9.7 20.9 0.00 0.00 0.00 28 1006.0
20260503184804 20 303 9.7 20.9 0.00 0.00 0.00 28 1006.0
20260503184704 20 299 9.7 20.9 0.00 0.00 0.00 30 1006.0
20260503184604 20 303 9.7 20.9 0.00 0.00 0.00 30 1006.0
20260503184504 20 310 9.7 20.9 0.00 0.00 0.00 28 1006.0
20260503184404 20 312 9.7 20.9 0.00 0.00 0.00 29 1006.0
20260503184304 20 320 8.0 20.9 0.00 0.00 0.00 29 1006.0
20260503184204 20 315 9.7 29.0 0.00 0.00 0.00 30 1006.1
20260503184104 20 308 11.3 29.0 0.00 0.00 0.00 27 1006.0
20260503184018 20 308 11.3 29.0 0.00 0.00 0.00 27 1006.0
20260503183904 20 294 9.7 29.0 0.00 0.00 0.00 30 1005.9
20260503183804 20 305 9.7 29.0 0.00 0.00 0.00 32 1005.9
20260503183704 20 309 9.7 29.0 0.00 0.00 0.00 32 1005.9
20260503183604 20 304 9.7 29.0 0.00 0.00 0.00 33 1005.9
20260503183504 20 303 9.7 29.0 0.00 0.00 0.00 32 1006.0
20260503183404 20 301 11.3 29.0 0.00 0.00 0.00 31 1006.0
20260503183304 20 297 11.3 29.0 0.00 0.00 0.00 32 1006.1
20260503183204 20 292 9.7 29.0 0.00 0.00 0.00 34 1006.1
20260503183104 20 298 8.0 14.5 0.00 0.00 0.00 34 1006.0
20260503183004 20 300 8.0 14.5 0.00 0.00 0.00 33 1006.1
20260503182904 20 298 8.0 14.5 0.00 0.00 0.00 35 1006.1
20260503182804 20 291 8.0 14.5 0.00 0.00 0.00 33 1006.1
20260503182704 20 301 8.0 14.5 0.00 0.00 0.00 33 1006.1
20260503182604 20 309 8.0 14.5 0.00 0.00 0.00 34 1006.2
20260503182505 20 305 8.0 16.1 0.00 0.00 0.00 33 1006.2
20260503182405 20 309 8.0 16.1 0.00 0.00 0.00 35 1006.1
20260503182305 20 304 6.4 16.1 0.00 0.00 0.00 35 1006.1
20260503182205 20 314 6.4 16.1 0.00 0.00 0.00 35 1006.1
20260503182104 20 322 6.4 16.1 0.00 0.00 0.00 35 1006.1
20260503182005 20 326 6.4 16.1 0.00 0.00 0.00 35 1006.1
20260503181918 20 326 6.4 16.1 0.00 0.00 0.00 35 1006.1
20260503181804 20 323 8.0 16.1 0.00 0.00 0.00 34 1006.1
20260503181705 20 320 8.0 16.1 0.00 0.00 0.00 33 1006.1
20260503181619 20 320 8.0 16.1 0.00 0.00 0.00 33 1006.1
20260503181505 20 314 6.4 16.1 0.00 0.00 0.00 32 1006.2
20260503181404 20 307 6.4 12.9 0.00 0.00 0.00 35 1006.2
20260503181305 20 311 8.0 27.4 0.00 0.00 0.00 34 1006.2
20260503181204 20 309 9.7 27.4 0.00 0.00 0.00 34 1006.2
20260503181104 20 299 9.7 27.4 0.00 0.00 0.00 34 1006.2
20260503181004 20 309 9.7 27.4 0.00 0.00 0.00 34 1006.2
20260503180904 20 308 9.7 27.4 0.00 0.00 0.00 34 1006.3
20260503180805 20 313 9.7 27.4 0.00 0.00 0.00 36 1006.2
20260503180704 20 307 9.7 27.4 0.00 0.00 0.00 35 1006.3
20260503180604 20 310 11.3 27.4 0.00 0.00 0.00 35 1006.3
20260503180504 19 317 9.7 27.4 0.00 0.00 0.00 35 1006.2
20260503180405 19 321 11.3 27.4 0.00 0.00 0.00 36 1006.2
20260503180319 19 321 11.3 27.4 0.00 0.00 0.00 36 1006.2
20260503180204 19 339 11.3 27.4 0.00 0.00 0.00 34 1006.1
20260503180104 19 349 11.3 27.4 0.00 0.00 0.00 34 1006.2
20260503180005 19 331 9.7 27.4 0.00 0.00 0.00 35 1006.3
20260503175918 19 331 9.7 27.4 0.00 0.00 0.00 35 1006.3
20260503175818 19 335 11.3 27.4 0.00 0.00 0.00 36 1006.3
20260503175704 20 341 11.3 27.4 0.00 0.00 0.00 33 1006.3
20260503175618 20 341 11.3 27.4 0.00 0.00 0.00 33 1006.3
20260503175518 20 332 11.3 27.4 0.00 0.00 0.00 33 1006.3
20260503175404 20 328 11.3 27.4 0.00 0.00 0.00 34 1006.4
20260503175305 20 330 11.3 24.1 0.00 0.00 0.00 34 1006.4
20260503175204 20 320 11.3 22.5 0.00 0.00 0.00 34 1006.4
20260503175104 20 312 11.3 22.5 0.00 0.00 0.00 35 1006.4
20260503175004 19 320 12.9 22.5 0.00 0.00 0.00 36 1006.4
20260503174904 19 327 12.9 22.5 0.00 0.00 0.00 35 1006.3
20260503174818 19 327 12.9 22.5 0.00 0.00 0.00 35 1006.3
20260503174704 19 332 12.9 22.5 0.00 0.00 0.00 35 1006.4
20260503174604 19 335 11.3 20.9 0.00 0.00 0.00 35 1006.4
20260503174504 19 330 11.3 20.9 0.00 0.00 0.00 34 1006.5
20260503174404 20 329 11.3 20.9 0.00 0.00 0.00 34 1006.4
20260503174304 20 329 11.3 19.3 0.00 0.00 0.00 34 1006.5
20260503174204 20 328 9.7 17.7 0.00 0.00 0.00 35 1006.5
20260503174104 20 337 9.7 17.7 0.00 0.00 0.00 34 1006.5
20260503174018 20 337 9.7 17.7 0.00 0.00 0.00 34 1006.5
20260503173904 20 331 9.7 14.5 0.00 0.00 0.00 36 1006.4
20260503173804 20 321 8.0 14.5 0.00 0.00 0.00 36 1006.5
20260503173704 20 317 9.7 25.7 0.00 0.00 0.00 38 1006.5
20260503173618 20 317 9.7 25.7 0.00 0.00 0.00 38 1006.5
20260503173504 20 308 11.3 25.7 0.00 0.00 0.00 38 1006.5
20260503173404 20 307 12.9 25.7 0.00 0.00 0.00 38 1006.5
20260503173304 20 307 12.9 25.7 0.00 0.00 0.00 38 1006.5
20260503173204 19 307 12.9 25.7 0.00 0.00 0.00 39 1006.4
20260503173104 19 305 12.9 25.7 0.00 0.00 0.00 38 1006.4
20260503173018 19 305 12.9 25.7 0.00 0.00 0.00 38 1006.4
20260503172904 19 297 11.3 25.7 0.00 0.00 0.00 37 1006.4
20260503172804 19 299 12.9 25.7 0.00 0.00 0.00 38 1006.3
20260503172704 19 303 12.9 25.7 0.00 0.00 0.00 38 1006.4
20260503172604 19 312 11.3 20.9 0.00 0.00 0.00 38 1006.4
20260503172518 19 312 11.3 20.9 0.00 0.00 0.00 38 1006.4
20260503172404 19 306 8.0 17.7 0.00 0.00 0.00 39 1006.3
20260503172305 19 303 9.7 27.4 0.00 0.00 0.00 38 1006.3
20260503172204 19 314 11.3 27.4 0.00 0.00 0.00 39 1006.4
20260503172104 19 307 11.3 27.4 0.00 0.00 0.00 40 1006.3
20260503172005 19 312 11.3 27.4 0.00 0.00 0.00 39 1006.4
20260503171904 19 313 11.3 27.4 0.00 0.00 0.00 38 1006.4
20260503171804 19 314 11.3 27.4 0.00 0.00 0.00 38 1006.3
20260503171704 19 312 9.7 27.4 0.00 0.00 0.00 40 1006.4
20260503171604 19 310 11.3 27.4 0.00 0.00 0.00 40 1006.4
20260503171504 19 315 11.3 27.4 0.00 0.00 0.00 38 1006.4
20260503171404 19 311 11.3 27.4 0.00 0.00 0.00 38 1006.4
20260503171304 19 311 9.7 27.4 0.00 0.00 0.00 38 1006.3
20260503171205 19 300 8.0 22.5 0.00 0.00 0.00 38 1006.5
20260503171104 19 306 8.0 22.5 0.00 0.00 0.00 39 1006.4
20260503171004 19 308 8.0 22.5 0.00 0.00 0.00 39 1006.4
20260503170904 19 304 6.4 22.5 0.00 0.00 0.00 41 1006.4
20260503170804 19 310 8.0 22.5 0.00 0.00 0.00 41 1006.5
20260503170704 19 308 8.0 22.5 0.00 0.00 0.00 40 1006.5
20260503170604 19 308 8.0 22.5 0.00 0.00 0.00 40 1006.6
20260503170504 18 313 11.3 29.0 0.00 0.00 0.00 40 1006.5
20260503170418 18 313 11.3 29.0 0.00 0.00 0.00 40 1006.5
20260503170304 18 331 9.7 29.0 0.00 0.00 0.00 40 1006.6
20260503170204 18 335 11.3 29.0 0.00 0.00 0.00 38 1006.6
20260503170104 18 330 11.3 29.0 0.00 0.00 0.00 39 1006.6
20260503160205 17 342 8.0 20.9 0.00 0.00 0.00 40 1006.4
20260503160118 17 342 8.0 20.9 0.00 0.00 0.00 40 1006.4
20260503151004 16 2 9.7 24.1 0.00 0.00 0.00 45 1006.2
20260503150918 16 2 9.7 24.1 0.00 0.00 0.00 45 1006.2
20260503150804 16 8 9.7 24.1 0.00 0.00 0.00 45 1006.2
20260503150704 16 6 9.7 20.9 0.00 0.00 0.00 45 1006.2
20260503150604 16 4 11.3 20.9 0.00 0.00 0.00 45 1006.2
20260503150505 16 355 9.7 20.9 0.00 0.00 0.00 45 1006.2
20260503150404 16 349 9.7 20.9 0.00 0.00 0.00 45 1006.2
20260503150304 16 351 9.7 20.9 0.00 0.00 0.00 45 1006.2
20260503150204 16 351 11.3 25.7 0.00 0.00 0.00 45 1006.1
20260503150104 16 351 11.3 25.7 0.00 0.00 0.00 44 1006.1
20260503140304 15 1 8.0 12.9 0.00 0.00 0.00 48 1005.9
20260503140204 15 5 9.7 17.7 0.00 0.00 0.00 48 1005.9
20260503140105 15 353 8.0 17.7 0.00 0.00 0.00 48 1005.8
20260503131404 13 303 4.8 12.9 0.00 0.00 0.00 48 1005.3
20260503131304 13 301 3.2 12.9 0.00 0.00 0.00 48 1005.4
20260503131204 13 301 4.8 12.9 0.00 0.00 0.00 48 1005.4
20260503131104 13 299 4.8 12.9 0.00 0.00 0.00 49 1005.4
20260503131004 13 296 4.8 12.9 0.00 0.00 0.00 49 1005.3
20260503130904 13 289 4.8 12.9 0.00 0.00 0.00 48 1005.3
20260503130804 13 283 6.4 12.9 0.00 0.00 0.00 48 1005.3
20260503130704 13 285 6.4 12.9 0.00 0.00 0.00 49 1005.4
20260503130604 13 284 6.4 12.9 0.00 0.00 0.00 50 1005.4
20260503130518 13 284 6.4 12.9 0.00 0.00 0.00 50 1005.4
20260503130404 13 276 6.4 12.9 0.00 0.00 0.00 48 1005.3
20260503130304 13 273 6.4 12.9 0.00 0.00 0.00 49 1005.4
20260503130204 13 262 4.8 12.9 0.00 0.00 0.00 49 1005.3
20260503130118 13 262 4.8 12.9 0.00 0.00 0.00 49 1005.3
20260503120218 11 360 3.2 4.8 0.00 0.00 0.00 50 1005.0
20260503120118 11 360 3.2 4.8 0.00 0.00 0.00 50 1005.0
20260503110818 11 360 3.2 4.8 0.00 0.00 0.00 50 1004.5
20260503110718 11 360 3.2 4.8 0.00 0.00 0.00 50 1004.5
20260503110618 11 360 3.2 4.8 0.00 0.00 0.00 50 1004.5
20260503110504 11 360 3.2 4.8 0.00 0.00 0.00 50 1004.5
20260503110405 11 360 3.2 4.8 0.00 0.00 0.00 50 1004.5
20260503110304 11 360 3.2 4.8 0.00 0.00 0.00 50 1004.4
20260503110204 11 360 3.2 4.8 0.00 0.00 0.00 50 1004.3
20260503110104 11 360 3.2 4.8 0.00 0.00 0.00 50 1004.4